sat.trackr.live / text

‹ back to catalog

STARLINK-32846

NORAD 62867 · 2025-022P

PAYLOAD ACTIVE UNKNOWN

§ Identity

Operator
Country
US
Launch date
2025-02-01
Launch site
AFWTR
Launch vehicle
Mass (kg)
RCS (m²)

Purposes: comms

External: N2YO · Heavens-Above · Gunter

§ Orbital elements

Epoch: 2026-09-20T09:23:19.794048Z

Period
93.85 min
Inclination
53.1605°
Eccentricity
0.0001141
Mean motion
15.34380582 rev/d
Perigee alt
462.0 km
Apogee alt
463.5 km
Semi-major
6,840.9 km
B*
3.4085e-4
RAAN
302.1259°
Arg perigee
79.6604°
Mean anomaly
280.4527°
Rev number
9,175

§ Raw data

STARLINK-328461 62867U 25022P   26263.39120132  .00011150  00000+0  34085-3 0  99902 62867  53.1605 302.1259 0001141  79.6604 280.4527 15.34380582 91751

JSON: /api/v1/satellites/62867 · /tle

For live sub-satellite position, see the globe view (requires WebGL).

§ Visibility from observer

Set your observer location to see the next 7 days of passes ≥ 10°. The values pass through the URL so the page stays shareable.

No JS? Fill the form by hand. The geolocation button needs JavaScript.